weather.gov     
National Weather Service

Terminal Aerodrome Forecast
NWS Homepage
This page is being discontinued on March 12, 2014.
The same data is available at this site. Please update your bookmarks.
Thank you, and we apologize for the inconvenience.
Please send an email to SR-SRH.Webmaster@noaa.gov with any concerns.


Current Version
Previous Version:    01  02  03  04  05  06  07  08  09  10  11  12  13  14  15  16  17  18  19  20  21  22  23  24  25  26  27  28  29  30  
   31  32  33  34  35  
[Printable]
346
FTUS41 KPHI 241100
TAFPNE
TAF
KPNE 241140Z 2412/2512 20010G25KT P6SM OVC010 WS020/18055KT
     FM241500 20014G24KT P6SM SCT008 OVC015
     FM241800 20016G28KT P6SM OVC020
     FM242100 21012G20KT P6SM SCT020 BKN050
     FM250000 22009KT P6SM OVC050
     FM250600 26005KT P6SM BKN250=


U.S. Dept. of Commerce
NOAA National Weather Service
1325 East West Highway
Silver Spring, MD 20910
E-mail: w-nws.webmaster@noaa.gov
Page last modified: May 16, 2007
NATIONAL WEATHER SERVICE: for Safety, for Work, for Fun - FOR LIFE